This is the latest recevied weather packets stored in our database for station/object KE0FIN. If no packets are shown the sender has not sent any weather packets the latest 10 day(s).
| Time | Temp. | Humidity | Pressure | Rain* | Wind** | Luminosity | Snow |
|---|---|---|---|---|---|---|---|
| 1777501437 | 17.22° C | 46% | 1068.8 hPa | 0 mm | - | 146 W/m² | - |
| 1777501134 | 17.78° C | 44% | 1068.8 hPa | 0 mm | - | 171 W/m² | - |
| 1777500833 | 17.78° C | 43% | 1068.8 hPa | 0 mm | - | 217 W/m² | - |
| 1777500529 | 18.33° C | 43% | 1068.7 hPa | 0 mm | - | 325 W/m² | - |
| 1777500225 | 18.33° C | 44% | 1068.8 hPa | 0 mm | - | 403 W/m² | - |
| 1777499922 | 18.33° C | 44% | 1068.9 hPa | 0 mm | - | 235 W/m² | - |
| 1777499618 | 18.33° C | 44% | 1069 hPa | 0 mm | - | 225 W/m² | - |
| 1777499316 | 17.78° C | 46% | 1069.2 hPa | 0 mm | - | 429 W/m² | - |
| 1777499013 | 18.33° C | 44% | 1069 hPa | 0 mm | - | 242 W/m² | - |
| 1777498709 | 18.33° C | 44% | 1069.2 hPa | 0 mm | - | 458 W/m² | - |
| 1777498406 | 18.33° C | 43% | 1069.5 hPa | 0 mm | - | 493 W/m² | - |
| 1777498103 | 17.78° C | 44% | 1069.6 hPa | 0 mm | - | 438 W/m² | - |
| 1777497800 | 18.89° C | 44% | 1069.6 hPa | 0 mm | - | 444 W/m² | - |
| 1777497497 | 18.89° C | 44% | 1069.5 hPa | 0 mm | - | 504 W/m² | - |
| 1777497193 | 18.33° C | 45% | 1069.6 hPa | 0 mm | - | 512 W/m² | - |
| 1777496890 | 18.89° C | 46% | 1069.8 hPa | 0 mm | - | 523 W/m² | - |
| 1777496587 | 18.89° C | 47% | 1069.8 hPa | 0 mm | - | 533 W/m² | - |
| 1777496283 | 18.33° C | 46% | 1069.9 hPa | 0 mm | - | 539 W/m² | - |
| 1777495979 | 18.33° C | 47% | 1069.9 hPa | 0 mm | - | 506 W/m² | - |
| 1777495675 | 18.33° C | 49% | 1070 hPa | 0 mm | - | 489 W/m² | - |
| 1777495371 | 17.78° C | 50% | 1070 hPa | 0 mm | - | 439 W/m² | - |
| 1777495068 | 17.78° C | 50% | 1070.2 hPa | 0 mm | - | 537 W/m² | - |
| 1777494765 | 17.78° C | 49% | 1070.4 hPa | 0 mm | - | 568 W/m² | - |
| 1777494463 | 17.78° C | 48% | 1070.5 hPa | 0 mm | - | 468 W/m² | - |
| 1777494159 | 17.22° C | 48% | 1070.5 hPa | 0 mm | - | 485 W/m² | - |
* Rain latest hour (hover to see other rain measurements)
** Current wind speed in m/s (hover to see current wind gust speed)